Regional Weather Roundup
Issued by NWS

Home | Current Version | Previous Version | Graphics & Text | Print | Product List | Glossary On
Versions: 1 2 3 4 5 6 7 8 9 10 11 12 13 14 15 16 17 18 19 20 21 22 23 24 25 26 27 28 29 30 31 32 33 34 35 36 37 38 39 40 41 42 43 44 45 46 47 48 49 50
000
ASUS43 KLOT 180008
RWRIL

ILLINOIS REGIONAL WEATHER ROUNDUP
NATIONAL WEATHER SERVICE CHICAGO/ROMEOVILLE IL
600 PM CST FRI NOV 17 2017

NOTE: "FAIR" INDICATES FEW OR NO CLOUDS BELOW 12,000 FEET WITH NO
SIGNIFICANT WEATHER AND/OR OBSTRUCTIONS TO VISIBILITY.

* THESE STATIONS ARE NOT UNDER NWS QUALITY CONTROL. THEY ALSO MAY NOT
  REPORT WEATHER SUCH AS PRECIPITATION OR FOG.

ILZ001-002-007-009-015-016-024-180100-
NORTHWEST ILLINOIS

CITY           SKY/WX    TMP DP  RH WIND       PRES   REMARKS
MOLINE         CLOUDY    47  41  80 E6        29.59F
6HR MIN TEMP:  41; 6HR MAX TEMP:  47; 6HR PCP:  0.01;

STERLING*      LGT RAIN N/A N/A N/A MISG        N/A
SAVANNA*       DRIZZLE   42  40  94 SE6       29.62F
$$

ILZ003-004-008-010-011-017-018-180100-
NORTH CENTRAL ILLINOIS

CITY           SKY/WX    TMP DP  RH WIND       PRES   REMARKS
ROCKFORD       DRIZZLE   40  38  93 S14       29.66F FOG
6HR MIN TEMP:  37; 6HR MAX TEMP:  40; 6HR PCP: TRACE;

FREEPORT*      CLOUDY    39  38  98 S8        29.65F FOG     WCI  33
ROCHELLE*      CLOUDY    40  39  98 S13       29.65F FOG
DE KALB*       LGT RAIN  39  39  98 S18       29.66F WCI  30
PERU*          CLOUDY    42  39  92 S13       29.66F FOG
$$

ILZ005-006-012>014-019>023-180100-
NORTHEAST ILLINOIS

CITY           SKY/WX    TMP DP  RH WIND       PRES   REMARKS
CHICAGO-OHARE  CLOUDY    43  39  86 S14       29.68F
6HR MIN TEMP:  40; 6HR MAX TEMP:  45; 6HR PCP:  0.03;

CHICAGO-MIDWAY TSTM      43  40  89 S12G21    29.69F
6HR MIN TEMP:  42; 6HR MAX TEMP:  46; 6HR PCP:  0.36;

AURORA         CLOUDY    41  40  96 S14       29.68F FOG
6HR MIN TEMP:  38; 6HR MAX TEMP:  41; 6HR PCP:  0.01;

LANSING*       TSTM      42  40  93 S13       29.71S VSB 1/4
JOLIET*        TSTM      43  42  97 S10       29.70F
WAUKEGAN       CLOUDY    43  38  82 S14G21    29.66F
6HR MIN TEMP:  40; 6HR MAX TEMP:  44; 6HR PCP: TRACE;

DUPAGE AIRPORT LGT RAIN  40  40 100 S12       29.67F FOG
6HR MIN TEMP:  38; 6HR MAX TEMP:  41; 6HR PCP:  0.05;

KANKAKEE*      CLOUDY    45  38  78 S13G24    29.69S THUNDER
WHEELING       CLOUDY    43  40  89 S13       29.69F
6HR MIN TEMP:  41; 6HR MAX TEMP:  45; 6HR PCP:  0.04;

MORRIS*        CLOUDY    41  40  95 S10       29.69F
ROMEOVILLE*    CLOUDY    41  40  96 S10       29.70F
NORTHERLY ISL    N/A     42  38  85 SE13        N/A
$$

LMZ740>746-180100-
SOUTHERN LAKE MICHIGAN

STATION/POSITION SKY/WX   TEMP    WIND        PRES    VSBY  WAVE
                          AIR SEA DIR/SP/G                  HT/PER
                          (F)     (DEG/KT/KT) (MB)    (MI)  (FT/S)
SOUTHERN BUOY              46 50  150/ 25/ 29 1007.0          7/ 6
HARRISON CRIB              44     180/ 21/ 25   N/A
BURNHAM HARBOR             42     160/ 10/ 16   N/A
BURNS HARBOR               46     160/ 12/ 27 1006.4F
MICHIGAN CITY              46     140/ 23/ 27   N/A
$$

ILZ025>027-034>036-040-047-049-050-058-095>099-180100-
WEST-CENTRAL ILLINOIS

CITY           SKY/WX    TMP DP  RH WIND       PRES   REMARKS
QUINCY         CLOUDY    55  47  74 S14       29.60S
GALESBURG*     CLOUDY    47  44  87 SE9G16    29.62F
MACOMB*        CLOUDY    49  45  85 S14       29.63F
JACKSONVILLE*  CLOUDY    52  45  77 S20G25    29.65F
PITTSFIELD*    CLOUDY    53  47  79 SE14      29.64S
$$

ILZ028>032-037-038-041>044-048-051>054-059>061-180100-
CENTRAL ILLINOIS

CITY           SKY/WX    TMP DP  RH WIND       PRES   REMARKS
PONTIAC        CLOUDY    45  44  98 S18       29.69F
BLOOMINGTON    CLOUDY    44  41  89 S23       29.68F
DECATUR        LGT RAIN  46  42  86 S17G25    29.72F
PEORIA         CLOUDY    47  43  86 S16G24    29.66F
6HR MIN TEMP:  39; 6HR MAX TEMP:  47; 6HR PCP:  0.05;

LACON*         CLOUDY    46  42  88 S14G21    29.65F
LINCOLN*       CLOUDY    48  44  84 S13G22    29.69S
SPRINGFIELD    CLOUDY    52  45  77 S23       29.69S
6HR MIN TEMP:  45; 6HR MAX TEMP:  52;

TAYLORVILLE    CLOUDY    48  43  82 S17G24    29.72F
6HR MIN TEMP:  40; 6HR MAX TEMP:  48;

$$

ILZ033-039-045-046-055>057-062-063-180100-
EAST-CENTRAL ILLINOIS

CITY           SKY/WX    TMP DP  RH WIND       PRES   REMARKS
CHAMPAIGN      CLOUDY    46  39  76 SE22G29   29.72F
DANVILLE*      CLOUDY    46  37  70 SE15G22   29.72F
RANTOUL*       CLOUDY    46  41  83 S17G25    29.71F
MATTOON        MOCLDY    46  39  76 S20G30    29.74F
PARIS*         CLOUDY    45  39  78 SE18      29.78F
$$

ILZ079-100>102-180100-
SOUTHWEST ILLINOIS

CITY           SKY/WX    TMP DP  RH WIND       PRES   REMARKS
ALTON          CLOUDY    54  46  76 S18G25    29.71F
BELLEVILLE     CLOUDY    56  46  69 S8        29.70F
CAHOKIA*       CLOUDY    55  46  71 S12G18    29.71F
SPARTA*        CLOUDY    57  47  69 SE10G18   29.73F
$$

ILZ064>066-069>071-074>076-080>082-084>086-088>090-092>094-180100-
SOUTH-CENTRAL ILLINOIS

CITY           SKY/WX    TMP DP  RH WIND       PRES   REMARKS
CARBONDALE     CLOUDY    59  47  64 S14G23    29.75F
6HR MIN TEMP:  50; 6HR MAX TEMP:  59;

CAIRO*         CLOUDY    61  48  63 S14       29.79F
EFFINGHAM*     CLOUDY    47  43  87 SE14G21   29.78F
MARION         CLOUDY    59  46  63 SE12      29.78F
MT. VERNON     CLOUDY    51  44  77 S7        29.78F
CENTRALIA*     CLOUDY    52  45  75 SE13      29.74F
SALEM*         CLOUDY    52  43  70 SE12G17   29.76S
METROPOLIS*    CLOUDY    61  46  59 SE8       29.82S
$$

ILZ067-068-072-073-078-083-087-091-180100-
SOUTHEAST ILLINOIS

CITY           SKY/WX    TMP DP  RH WIND       PRES   REMARKS
LAWRENCEVILLE  CLOUDY    48  40  73 SE12      29.83F
FLORA*         CLOUDY    50  43  78 SE13      29.79F
FAIRFIELD*     CLOUDY    49  43  79 SE8       29.78F
HARRISBURG*    CLOUDY    53  46  76 SE8       29.81F
ROBINSON*      MOCLDY    46  38  74 SE13G20   29.83F
CARMI*         CLOUDY    50  43  79 SE14      29.81F
$$

ABBREVIATIONS USED IN REMARKS
   TC - TEMPERATURE IN CELSIUS
  WCI - WIND CHILL INDEX
   HX - HEAT INDEX
  VSB - VISIBILITY
$$





USA.gov is the U.S. government's official web portal to all federal, state and local government web resources and services.